UAE261 OMDB-SBGR

Flight info

Callsign UAE261
Flight time N/A
Altitude 30000
Route ANVIX R401 GIDIS G783 UKRAG/N0515F290 L710 ITETA/N0512F310 L710 KUKDI/N0514F300 B400 RIGAM B404 DEMGO/N0509F320 UB404 HARGA UM216 PATAR UN553 NALOS UT136 BUN UH1 OSBID/N0501F340 UH1 KGI UB535 KSA UT417 EBNON UB535 INALO UT417 TETUX DCT 07S005E 08S000W 10S005W/N0494F360 12S010W 14S015W 16S020W 17S025W 18S030W/N0488F380 19S035W DCT UMREP UZ47 MOLSU UN401 SIDUR UZ10 EDMUS
Aircraft B77W/H-SDE1E2E3FGHJ2J3J4J5M1RWXY/LB1D1

Departure

Time N/A
Airport Dubai International Airport (OMDB)

Arrival

Time 2026-05-01 15:18
Airport São Paulo/Guarulhos–Governor André Franco Montoro International Airport (SBGR)
Time Latitude Longitude Altitude Speed Heading
2026-05-01 07:23 -4.81599 14.34261 30011 ft 510 kts 248°
2026-05-01 07:24 -4.85438 14.24243 30002 ft 510 kts 248°
2026-05-01 07:24 -4.87997 14.17563 30001 ft 511 kts 248°
2026-05-01 07:25 -4.90571 14.10826 30004 ft 511 kts 248°
2026-05-01 07:25 -4.93092 14.04218 30004 ft 510 kts 248°
2026-05-01 07:26 -4.95648 13.97516 30005 ft 510 kts 248°
2026-05-01 07:26 -4.98195 13.90837 30012 ft 510 kts 248°
2026-05-01 07:27 -5.00726 13.84196 30022 ft 511 kts 248°
2026-05-01 07:27 -5.03293 13.77459 30029 ft 511 kts 248°
2026-05-01 07:28 -5.05845 13.70760 30033 ft 511 kts 248°
2026-05-01 07:28 -5.08392 13.64071 30030 ft 511 kts 248°
2026-05-01 07:29 -5.10946 13.57361 30030 ft 510 kts 248°
2026-05-01 07:29 -5.13474 13.50717 30029 ft 510 kts 247°
2026-05-01 07:30 -5.16034 13.43988 30026 ft 511 kts 247°
2026-05-01 07:30 -5.18578 13.37296 30021 ft 511 kts 247°
2026-05-01 07:31 -5.21121 13.30606 30014 ft 511 kts 248°
2026-05-01 07:32 -5.27470 13.13891 30012 ft 511 kts 248°
2026-05-01 07:33 -5.31305 13.03789 30009 ft 511 kts 247°
2026-05-01 07:33 -5.35118 12.93740 30005 ft 511 kts 247°
2026-05-01 07:34 -5.38929 12.83690 29996 ft 510 kts 248°
2026-05-01 07:35 -5.41462 12.77005 29990 ft 511 kts 248°
2026-05-01 07:35 -5.44006 12.70290 29983 ft 511 kts 248°
2026-05-01 07:36 -5.46544 12.63590 29983 ft 511 kts 248°
2026-05-01 07:36 -5.49074 12.56908 29984 ft 511 kts 248°
2026-05-01 07:37 -5.52896 12.46812 29980 ft 511 kts 248°
2026-05-01 07:37 -5.55421 12.40146 29978 ft 512 kts 247°
2026-05-01 07:38 -5.57985 12.33372 29973 ft 512 kts 248°
2026-05-01 07:39 -5.61772 12.23367 29968 ft 512 kts 248°
2026-05-01 07:39 -5.64706 12.12942 29970 ft 514 kts 257°
2026-05-01 07:40 -5.66154 12.05946 29970 ft 514 kts 257°
2026-05-01 07:40 -5.67626 11.98832 29969 ft 515 kts 257°
2026-05-01 07:41 -5.69083 11.91800 29967 ft 514 kts 257°
2026-05-01 07:42 -5.71284 11.81175 29960 ft 513 kts 257°
2026-05-01 07:42 -5.72741 11.74135 29959 ft 514 kts 257°
2026-05-01 07:43 -5.74194 11.67114 29958 ft 514 kts 257°
2026-05-01 07:43 -5.76392 11.56487 29960 ft 514 kts 257°
2026-05-01 07:44 -5.79304 11.42390 29963 ft 513 kts 257°
2026-05-01 07:45 -5.80752 11.35375 29957 ft 513 kts 257°
2026-05-01 07:45 -5.82196 11.28372 29949 ft 513 kts 257°
2026-05-01 07:46 -5.83662 11.21260 29948 ft 514 kts 257°
2026-05-01 07:47 -5.85832 11.10723 29950 ft 513 kts 257°
2026-05-01 07:47 -5.87273 11.03719 29951 ft 513 kts 257°
2026-05-01 07:48 -5.89451 10.93128 29950 ft 513 kts 257°
2026-05-01 07:48 -5.90894 10.86103 29952 ft 512 kts 257°
2026-05-01 07:49 -5.93067 10.75514 29952 ft 513 kts 257°
2026-05-01 07:50 -5.94499 10.68535 29953 ft 512 kts 257°
2026-05-01 07:50 -5.96670 10.57940 29953 ft 511 kts 257°
2026-05-01 07:51 -5.98097 10.50967 29953 ft 511 kts 257°
2026-05-01 07:52 -6.00258 10.40387 29954 ft 511 kts 258°
2026-05-01 07:52 -6.01595 10.33355 29951 ft 510 kts 258°
2026-05-01 07:53 -6.03591 10.22797 29949 ft 510 kts 258°
2026-05-01 07:53 -6.04919 10.15782 29949 ft 510 kts 258°
2026-05-01 07:55 -6.08234 9.98276 29951 ft 510 kts 259°
2026-05-01 07:56 -6.11548 9.80749 29955 ft 508 kts 259°
2026-05-01 07:57 -6.13532 9.70243 29956 ft 508 kts 259°
2026-05-01 07:58 -6.16174 9.56239 29964 ft 510 kts 259°
2026-05-01 07:59 -6.18820 9.42189 29974 ft 509 kts 259°
2026-05-01 08:00 -6.22774 9.21155 29971 ft 509 kts 259°
2026-05-01 08:01 -6.25406 9.07127 29972 ft 508 kts 259°
2026-05-01 08:02 -6.27384 8.96571 29972 ft 508 kts 259°
2026-05-01 08:03 -6.29358 8.86025 29972 ft 508 kts 259°
2026-05-01 08:03 -6.31319 8.75539 29973 ft 509 kts 259°
2026-05-01 08:04 -6.33940 8.61499 29973 ft 508 kts 259°
2026-05-01 08:05 -6.35900 8.50991 29973 ft 507 kts 259°
2026-05-01 08:06 -6.37856 8.40485 29974 ft 508 kts 259°
2026-05-01 08:07 -6.40455 8.26514 29971 ft 506 kts 259°
2026-05-01 08:08 -6.42402 8.16029 29972 ft 507 kts 259°
2026-05-01 08:09 -6.44989 8.02080 29971 ft 507 kts 259°
2026-05-01 08:09 -6.46286 7.95080 29970 ft 507 kts 259°
2026-05-01 08:10 -6.48875 7.81088 29972 ft 504 kts 259°
2026-05-01 08:11 -6.51450 7.67152 29974 ft 507 kts 259°
2026-05-01 08:12 -6.53384 7.56668 29974 ft 506 kts 259°
2026-05-01 08:13 -6.55323 7.46150 29972 ft 507 kts 259°
2026-05-01 08:13 -6.57240 7.35730 29972 ft 506 kts 259°
2026-05-01 08:14 -6.58532 7.28704 29971 ft 506 kts 259°
2026-05-01 08:14 -6.59808 7.21762 29969 ft 506 kts 259°
2026-05-01 08:15 -6.61737 7.11250 29969 ft 506 kts 259°
2026-05-01 08:16 -6.63016 7.04272 29969 ft 506 kts 259°
2026-05-01 08:16 -6.64296 6.97286 29971 ft 505 kts 259°
2026-05-01 08:17 -6.65576 6.90296 29973 ft 506 kts 259°
2026-05-01 08:17 -6.66847 6.83347 29977 ft 506 kts 259°
2026-05-01 08:18 -6.68136 6.76291 29979 ft 507 kts 259°
2026-05-01 08:19 -6.70685 6.62324 29989 ft 505 kts 259°
2026-05-01 08:19 -6.71961 6.55325 29987 ft 505 kts 259°
2026-05-01 08:20 -6.73220 6.48412 29989 ft 505 kts 259°
2026-05-01 08:20 -6.74506 6.41348 29990 ft 505 kts 259°
2026-05-01 08:21 -6.75772 6.34387 29994 ft 505 kts 259°
2026-05-01 08:21 -6.77032 6.27451 29990 ft 505 kts 259°
2026-05-01 08:22 -6.78308 6.20423 29989 ft 505 kts 259°
2026-05-01 08:22 -6.79584 6.13387 29988 ft 506 kts 259°
2026-05-01 08:23 -6.80842 6.06445 29989 ft 506 kts 259°
2026-05-01 08:23 -6.82110 5.99445 29988 ft 506 kts 259°
2026-05-01 08:24 -6.83370 5.92479 29989 ft 505 kts 259°
2026-05-01 08:24 -6.84630 5.85508 29989 ft 505 kts 259°
2026-05-01 08:25 -6.85889 5.78541 29991 ft 506 kts 259°
2026-05-01 08:25 -6.87146 5.71573 29988 ft 506 kts 259°
2026-05-01 08:26 -6.88410 5.64563 29990 ft 506 kts 259°
2026-05-01 08:26 -6.89673 5.57555 29990 ft 506 kts 259°
2026-05-01 08:27 -6.90926 5.50593 29992 ft 505 kts 259°
2026-05-01 08:27 -6.92190 5.43563 29988 ft 505 kts 259°
2026-05-01 08:28 -6.93453 5.36536 29987 ft 506 kts 259°
2026-05-01 08:28 -6.94708 5.29547 29984 ft 506 kts 259°
2026-05-01 08:29 -6.95961 5.22558 29985 ft 506 kts 259°
2026-05-01 08:29 -6.97223 5.15516 29988 ft 507 kts 259°
2026-05-01 08:30 -6.98469 5.08558 29988 ft 506 kts 259°
2026-05-01 08:30 -6.99722 5.01556 29992 ft 505 kts 259°
2026-05-01 08:31 -7.01080 4.94574 29989 ft 505 kts 258°
2026-05-01 08:31 -7.02519 4.87662 29987 ft 506 kts 258°
2026-05-01 08:32 -7.03969 4.80658 29984 ft 505 kts 258°
2026-05-01 08:32 -7.05394 4.73745 29980 ft 507 kts 258°
2026-05-01 08:33 -7.06838 4.66725 29979 ft 507 kts 258°
2026-05-01 08:33 -7.08266 4.59773 29980 ft 507 kts 258°
2026-05-01 08:34 -7.09693 4.52813 29981 ft 506 kts 258°
2026-05-01 08:34 -7.11126 4.45821 29977 ft 506 kts 258°
2026-05-01 08:35 -7.12547 4.38878 29978 ft 506 kts 258°
2026-05-01 08:35 -7.13967 4.31934 29969 ft 506 kts 258°
2026-05-01 08:36 -7.15394 4.24951 29970 ft 506 kts 258°
2026-05-01 08:36 -7.16813 4.18001 29972 ft 507 kts 258°
2026-05-01 08:37 -7.18239 4.11009 29968 ft 506 kts 258°
2026-05-01 08:37 -7.19659 4.04042 29973 ft 506 kts 258°
2026-05-01 08:38 -7.21069 3.97119 29972 ft 507 kts 258°
2026-05-01 08:38 -7.22504 3.90069 29970 ft 507 kts 258°
2026-05-01 08:39 -7.23910 3.83154 29973 ft 506 kts 258°
2026-05-01 08:39 -7.25326 3.76184 29972 ft 506 kts 258°
2026-05-01 08:40 -7.27448 3.65733 29974 ft 505 kts 258°
2026-05-01 08:40 -7.28861 3.58762 29985 ft 504 kts 258°
2026-05-01 08:41 -7.30271 3.51805 29994 ft 504 kts 258°
2026-05-01 08:41 -7.31667 3.44908 29994 ft 504 kts 258°
2026-05-01 08:42 -7.33088 3.37885 29994 ft 504 kts 258°
2026-05-01 08:42 -7.34477 3.31011 29992 ft 502 kts 258°
2026-05-01 08:43 -7.35868 3.24120 29992 ft 502 kts 258°
2026-05-01 08:43 -7.37282 3.17116 29993 ft 503 kts 258°
2026-05-01 08:44 -7.38674 3.10209 29991 ft 502 kts 258°
2026-05-01 08:44 -7.40057 3.03347 29992 ft 502 kts 258°
2026-05-01 08:45 -7.41458 2.96386 29994 ft 503 kts 258°
2026-05-01 08:45 -7.42849 2.89465 29992 ft 503 kts 258°
2026-05-01 08:46 -7.44248 2.82503 29995 ft 502 kts 258°
2026-05-01 08:46 -7.45631 2.75617 29994 ft 502 kts 258°
2026-05-01 08:47 -7.47029 2.68646 29993 ft 503 kts 258°
2026-05-01 08:47 -7.48416 2.61727 29995 ft 502 kts 258°
2026-05-01 08:48 -7.49796 2.54836 29993 ft 502 kts 258°
2026-05-01 08:48 -7.51188 2.47881 29993 ft 502 kts 258°
2026-05-01 08:49 -7.52564 2.40998 29994 ft 503 kts 258°
2026-05-01 08:49 -7.53954 2.34039 29992 ft 503 kts 258°
2026-05-01 08:50 -7.55335 2.27122 29991 ft 502 kts 258°
2026-05-01 08:50 -7.56713 2.20208 29991 ft 502 kts 258°
2026-05-01 08:51 -7.58100 2.13246 29992 ft 502 kts 258°
2026-05-01 08:51 -7.59475 2.06339 29992 ft 502 kts 258°
2026-05-01 08:52 -7.60863 1.99364 29991 ft 503 kts 258°
2026-05-01 08:52 -7.62238 1.92443 29986 ft 502 kts 258°
2026-05-01 08:53 -7.63617 1.85501 29987 ft 502 kts 258°
2026-05-01 08:53 -7.64990 1.78577 29985 ft 502 kts 258°
2026-05-01 08:54 -7.66355 1.71693 29987 ft 501 kts 258°
2026-05-01 08:54 -7.67734 1.64729 29986 ft 502 kts 258°
2026-05-01 08:55 -7.69108 1.57783 29986 ft 503 kts 258°
2026-05-01 08:55 -7.70478 1.50855 29988 ft 503 kts 258°
2026-05-01 08:56 -7.71851 1.43904 29985 ft 502 kts 258°
2026-05-01 08:56 -7.73210 1.37017 29982 ft 502 kts 258°
2026-05-01 08:57 -7.74586 1.30038 29976 ft 501 kts 258°
2026-05-01 08:57 -7.75945 1.23138 29973 ft 501 kts 258°
2026-05-01 08:58 -7.77311 1.16203 29974 ft 501 kts 258°
2026-05-01 08:58 -7.78673 1.09273 29971 ft 501 kts 258°
2026-05-01 08:59 -7.80025 1.02390 29972 ft 501 kts 258°
2026-05-01 08:59 -7.81388 0.95448 29972 ft 500 kts 258°
2026-05-01 09:00 -7.82752 0.88494 29971 ft 501 kts 258°
2026-05-01 09:00 -7.84102 0.81606 29972 ft 501 kts 258°
2026-05-01 09:01 -7.85455 0.74693 29972 ft 500 kts 258°
2026-05-01 09:01 -7.86814 0.67748 29973 ft 502 kts 258°
2026-05-01 09:02 -7.88143 0.60948 29979 ft 502 kts 258°
2026-05-01 09:02 -7.89500 0.53995 29989 ft 500 kts 258°
2026-05-01 09:03 -7.90843 0.47108 29995 ft 500 kts 258°
2026-05-01 09:03 -7.92195 0.40172 29994 ft 500 kts 258°
2026-05-01 09:04 -7.93536 0.33288 29993 ft 500 kts 258°
2026-05-01 09:04 -7.94878 0.26386 29993 ft 498 kts 259°
2026-05-01 09:05 -7.96221 0.19479 29992 ft 498 kts 259°
2026-05-01 09:05 -7.97547 0.12651 29993 ft 498 kts 259°
2026-05-01 09:06 -7.98885 0.05754 29993 ft 498 kts 259°
2026-05-01 09:06 -8.00478 -0.01099 29994 ft 497 kts 250°
2026-05-01 09:07 -8.03072 -0.07578 29988 ft 498 kts 247°
2026-05-01 09:07 -8.05751 -0.14112 29979 ft 499 kts 247°
2026-05-01 09:08 -8.08400 -0.20589 29972 ft 498 kts 247°
2026-05-01 09:08 -8.11036 -0.27044 29975 ft 497 kts 247°
2026-05-01 09:09 -8.13697 -0.33566 29975 ft 497 kts 247°
2026-05-01 09:09 -8.16326 -0.40015 29975 ft 499 kts 247°
2026-05-01 09:10 -8.18961 -0.46484 29977 ft 499 kts 247°
2026-05-01 09:10 -8.21608 -0.52988 29978 ft 497 kts 247°
2026-05-01 09:11 -8.24236 -0.59446 29975 ft 497 kts 247°
2026-05-01 09:11 -8.26887 -0.65965 29980 ft 496 kts 248°
2026-05-01 09:12 -8.29513 -0.72428 29977 ft 495 kts 247°
2026-05-01 09:12 -8.32149 -0.78918 29979 ft 496 kts 247°
2026-05-01 09:13 -8.34771 -0.85376 29979 ft 495 kts 248°
2026-05-01 09:13 -8.37392 -0.91834 29979 ft 496 kts 248°
2026-05-01 09:14 -8.40027 -0.98333 29983 ft 494 kts 248°
2026-05-01 09:14 -8.42637 -1.04772 29990 ft 494 kts 248°
2026-05-01 09:15 -8.45273 -1.11281 29990 ft 493 kts 247°
2026-05-01 09:15 -8.47875 -1.17706 29991 ft 493 kts 247°
2026-05-01 09:16 -8.50509 -1.24215 29991 ft 494 kts 247°
2026-05-01 09:17 -8.54412 -1.33868 29993 ft 496 kts 247°
2026-05-01 09:17 -8.58336 -1.43578 29995 ft 494 kts 247°
2026-05-01 09:18 -8.62247 -1.53268 29992 ft 493 kts 247°
2026-05-01 09:19 -8.66139 -1.62914 29995 ft 492 kts 247°
2026-05-01 09:20 -8.70024 -1.72555 29993 ft 492 kts 247°
2026-05-01 09:21 -8.75202 -1.85415 29993 ft 491 kts 247°
2026-05-01 09:21 -8.79067 -1.95020 29993 ft 489 kts 247°
2026-05-01 09:22 -8.84216 -2.07834 29990 ft 489 kts 247°
2026-05-01 09:23 -8.88057 -2.17401 29991 ft 489 kts 247°
2026-05-01 09:24 -8.91920 -2.27032 29995 ft 490 kts 247°
2026-05-01 09:25 -8.97090 -2.39931 29991 ft 490 kts 248°
2026-05-01 09:26 -9.00910 -2.49473 29990 ft 489 kts 248°
2026-05-01 09:26 -9.04769 -2.59122 29977 ft 489 kts 247°
2026-05-01 09:27 -9.08590 -2.68684 29974 ft 489 kts 247°
2026-05-01 09:28 -9.11162 -2.75123 29973 ft 489 kts 248°
2026-05-01 09:28 -9.13708 -2.81502 29975 ft 489 kts 248°
2026-05-01 09:29 -9.17555 -2.91148 29974 ft 489 kts 248°
2026-05-01 09:30 -9.21388 -3.00768 29975 ft 489 kts 248°
2026-05-01 09:30 -9.25215 -3.10380 29977 ft 489 kts 248°
2026-05-01 09:31 -9.27778 -3.16823 29977 ft 490 kts 248°
2026-05-01 09:32 -9.31628 -3.26507 29979 ft 491 kts 248°
2026-05-01 09:32 -9.35446 -3.36121 29984 ft 491 kts 248°
2026-05-01 09:33 -9.38021 -3.42608 29987 ft 490 kts 248°
2026-05-01 09:34 -9.41844 -3.52248 29991 ft 490 kts 248°
2026-05-01 09:34 -9.45689 -3.61951 29990 ft 492 kts 248°
2026-05-01 09:35 -9.49526 -3.71643 29992 ft 491 kts 248°
2026-05-01 09:36 -9.52077 -3.78092 29992 ft 491 kts 248°
2026-05-01 09:36 -9.54614 -3.84510 29992 ft 492 kts 248°
2026-05-01 09:37 -9.57180 -3.91007 29990 ft 491 kts 248°
2026-05-01 09:37 -9.60973 -4.00614 29993 ft 492 kts 248°
2026-05-01 09:38 -9.64813 -4.10349 29993 ft 491 kts 248°
2026-05-01 09:39 -9.68621 -4.20014 29993 ft 492 kts 248°
2026-05-01 09:39 -9.71175 -4.26502 29993 ft 493 kts 248°
2026-05-01 09:40 -9.74991 -4.36200 29993 ft 492 kts 248°
2026-05-01 09:41 -9.77551 -4.42712 29993 ft 491 kts 248°
2026-05-01 09:41 -9.81342 -4.52363 29992 ft 490 kts 249°
2026-05-01 09:42 -9.83883 -4.58839 29994 ft 490 kts 249°
2026-05-01 09:43 -9.88950 -4.71760 29995 ft 491 kts 249°
2026-05-01 09:43 -9.91486 -4.78235 29993 ft 492 kts 249°
2026-05-01 09:44 -9.95283 -4.87935 30006 ft 489 kts 249°
2026-05-01 09:45 -9.97798 -4.94365 30011 ft 489 kts 249°
2026-05-01 09:45 -10.01641 -5.04058 30011 ft 490 kts 248°
2026-05-01 09:46 -10.04279 -5.10459 30013 ft 491 kts 248°
2026-05-01 09:46 -10.06917 -5.16878 30010 ft 491 kts 248°
2026-05-01 09:47 -10.09560 -5.23319 30009 ft 491 kts 248°
2026-05-01 09:47 -10.12180 -5.29710 30010 ft 490 kts 248°
2026-05-01 09:48 -10.14830 -5.36184 30010 ft 489 kts 248°
2026-05-01 09:48 -10.17422 -5.42518 30012 ft 489 kts 248°
2026-05-01 09:49 -10.20061 -5.48975 30012 ft 489 kts 248°
2026-05-01 09:49 -10.22696 -5.55425 30012 ft 488 kts 248°
2026-05-01 09:50 -10.25294 -5.61788 30012 ft 488 kts 248°
2026-05-01 09:50 -10.27903 -5.68184 30013 ft 488 kts 249°
2026-05-01 09:51 -10.30507 -5.74569 30013 ft 487 kts 249°
2026-05-01 09:51 -10.33095 -5.80921 30013 ft 487 kts 249°
2026-05-01 09:52 -10.35700 -5.87319 30013 ft 487 kts 249°
2026-05-01 09:52 -10.38290 -5.93684 30013 ft 487 kts 249°
2026-05-01 09:53 -10.40885 -6.00066 30013 ft 487 kts 249°
2026-05-01 09:53 -10.43485 -6.06463 30013 ft 486 kts 249°
2026-05-01 09:54 -10.46068 -6.12822 30013 ft 486 kts 249°
2026-05-01 09:54 -10.48656 -6.19200 30013 ft 486 kts 249°
2026-05-01 09:55 -10.51248 -6.25591 30013 ft 486 kts 249°
2026-05-01 09:55 -10.53825 -6.31947 30013 ft 486 kts 249°
2026-05-01 09:56 -10.56415 -6.38342 30013 ft 486 kts 249°
2026-05-01 09:56 -10.58998 -6.44723 30012 ft 485 kts 249°
2026-05-01 09:57 -10.61572 -6.51086 30011 ft 485 kts 249°
2026-05-01 09:57 -10.64154 -6.57474 30008 ft 484 kts 249°
2026-05-01 09:58 -10.66727 -6.63843 30008 ft 485 kts 249°
2026-05-01 09:58 -10.69325 -6.70277 30010 ft 485 kts 249°
2026-05-01 09:59 -10.71880 -6.76610 30008 ft 485 kts 249°
2026-05-01 09:59 -10.74461 -6.83013 30008 ft 485 kts 249°
2026-05-01 10:00 -10.77039 -6.89412 30009 ft 484 kts 249°
2026-05-01 10:00 -10.79598 -6.95768 30011 ft 484 kts 249°
2026-05-01 10:01 -10.82156 -7.02126 30010 ft 484 kts 249°
2026-05-01 10:01 -10.84708 -7.08472 30013 ft 483 kts 250°
2026-05-01 10:02 -10.87268 -7.14845 30012 ft 484 kts 249°
2026-05-01 10:02 -10.89820 -7.21200 30012 ft 483 kts 249°
2026-05-01 10:03 -10.92374 -7.27563 30012 ft 483 kts 249°
2026-05-01 10:03 -10.94911 -7.33891 30010 ft 482 kts 249°
2026-05-01 10:04 -10.97468 -7.40273 30009 ft 483 kts 249°
2026-05-01 10:04 -11.00022 -7.46650 30006 ft 483 kts 250°
2026-05-01 10:05 -11.02548 -7.52965 30009 ft 482 kts 250°
2026-05-01 10:05 -11.05108 -7.59367 30016 ft 482 kts 250°
2026-05-01 10:06 -11.07626 -7.65669 30016 ft 482 kts 250°
2026-05-01 10:06 -11.10192 -7.72093 30018 ft 482 kts 250°
2026-05-01 10:07 -11.12711 -7.78408 30010 ft 482 kts 250°
2026-05-01 10:07 -11.15248 -7.84768 30016 ft 482 kts 250°
2026-05-01 10:08 -11.19037 -7.94280 30016 ft 482 kts 250°
2026-05-01 10:09 -11.21568 -8.00639 30018 ft 482 kts 250°
2026-05-01 10:09 -11.24096 -8.06994 30011 ft 481 kts 250°
2026-05-01 10:10 -11.26618 -8.13338 30018 ft 481 kts 250°
2026-05-01 10:10 -11.30400 -8.22862 30015 ft 481 kts 250°
2026-05-01 10:11 -11.32908 -8.29184 30014 ft 482 kts 250°
2026-05-01 10:11 -11.35442 -8.35574 30014 ft 482 kts 250°
2026-05-01 10:12 -11.37955 -8.41916 30013 ft 481 kts 250°
2026-05-01 10:13 -11.41734 -8.51463 30011 ft 481 kts 250°
2026-05-01 10:13 -11.44240 -8.57799 30012 ft 480 kts 250°
2026-05-01 10:14 -11.48001 -8.67316 30013 ft 481 kts 250°
2026-05-01 10:14 -11.50512 -8.73677 30014 ft 481 kts 250°
2026-05-01 10:15 -11.53023 -8.80043 30015 ft 481 kts 250°
2026-05-01 10:15 -11.55524 -8.86386 30014 ft 481 kts 250°
2026-05-01 10:16 -11.58047 -8.92791 30014 ft 482 kts 250°
2026-05-01 10:17 -11.61810 -9.02352 30013 ft 481 kts 250°
2026-05-01 10:17 -11.65552 -9.11871 30012 ft 482 kts 250°
2026-05-01 10:18 -11.69313 -9.21448 30012 ft 482 kts 250°
2026-05-01 10:19 -11.71822 -9.27844 30013 ft 482 kts 250°
2026-05-01 10:19 -11.74318 -9.34210 30012 ft 481 kts 250°
2026-05-01 10:20 -11.78050 -9.43739 30012 ft 481 kts 250°
2026-05-01 10:20 -11.80559 -9.50150 30012 ft 481 kts 250°
2026-05-01 10:21 -11.84274 -9.59654 30010 ft 482 kts 250°
2026-05-01 10:22 -11.88026 -9.69262 30011 ft 482 kts 250°
2026-05-01 10:23 -11.91761 -9.78838 30014 ft 481 kts 250°
2026-05-01 10:23 -11.95489 -9.88406 30016 ft 482 kts 250°
2026-05-01 10:24 -12.00479 -10.01216 30015 ft 482 kts 250°
2026-05-01 10:25 -12.05728 -10.13924 30016 ft 482 kts 249°
2026-05-01 10:26 -12.08345 -10.20265 30017 ft 482 kts 249°
2026-05-01 10:27 -12.13556 -10.32925 30014 ft 482 kts 250°
2026-05-01 10:28 -12.17468 -10.42450 30013 ft 482 kts 250°
2026-05-01 10:28 -12.21386 -10.51998 30014 ft 481 kts 250°
2026-05-01 10:29 -12.25281 -10.61503 30015 ft 481 kts 250°
2026-05-01 10:30 -12.30456 -10.74148 30018 ft 481 kts 250°
2026-05-01 10:31 -12.35631 -10.86811 30019 ft 481 kts 250°
2026-05-01 10:32 -12.39528 -10.96360 30019 ft 480 kts 250°
2026-05-01 10:33 -12.44682 -11.09006 30020 ft 479 kts 250°
2026-05-01 10:34 -12.48539 -11.18484 30021 ft 480 kts 250°
2026-05-01 10:34 -12.51117 -11.24825 30022 ft 479 kts 250°
2026-05-01 10:35 -12.54946 -11.34251 30026 ft 478 kts 250°
2026-05-01 10:35 -12.57535 -11.40630 30029 ft 478 kts 250°
2026-05-01 10:36 -12.61361 -11.50067 30032 ft 478 kts 250°
2026-05-01 10:37 -12.63927 -11.56405 30033 ft 478 kts 250°
2026-05-01 10:37 -12.67742 -11.65832 30034 ft 478 kts 251°
2026-05-01 10:38 -12.70309 -11.72182 30036 ft 478 kts 251°
2026-05-01 10:38 -12.72872 -11.78528 30036 ft 478 kts 251°
2026-05-01 10:39 -12.75413 -11.84824 30036 ft 478 kts 251°
2026-05-01 10:39 -12.77960 -11.91139 30036 ft 477 kts 251°
2026-05-01 10:40 -12.80505 -11.97454 30036 ft 476 kts 251°
2026-05-01 10:40 -12.83048 -12.03771 30034 ft 477 kts 251°
2026-05-01 10:41 -12.85594 -12.10100 30035 ft 477 kts 251°
2026-05-01 10:42 -12.89400 -12.19570 30036 ft 476 kts 251°
2026-05-01 10:42 -12.91924 -12.25856 30035 ft 476 kts 251°
2026-05-01 10:43 -12.94470 -12.32201 30034 ft 476 kts 251°
2026-05-01 10:43 -12.96974 -12.38448 30035 ft 477 kts 251°
2026-05-01 10:44 -12.99517 -12.44795 30038 ft 477 kts 251°
2026-05-01 10:44 -13.02031 -12.51077 30035 ft 476 kts 251°
2026-05-01 10:45 -13.04565 -12.57414 30034 ft 476 kts 251°
2026-05-01 10:45 -13.07078 -12.63703 30037 ft 477 kts 251°
2026-05-01 10:46 -13.09603 -12.70028 30043 ft 476 kts 251°
2026-05-01 10:46 -13.12119 -12.76334 30035 ft 476 kts 251°
2026-05-01 10:47 -13.14642 -12.82664 30039 ft 476 kts 251°
2026-05-01 10:47 -13.17151 -12.88963 30037 ft 475 kts 251°
2026-05-01 10:48 -13.19664 -12.95278 30038 ft 475 kts 251°
2026-05-01 10:48 -13.22164 -13.01567 30038 ft 477 kts 251°
2026-05-01 10:49 -13.24691 -13.07927 30041 ft 476 kts 251°
2026-05-01 10:49 -13.27185 -13.14210 30043 ft 477 kts 251°
2026-05-01 10:50 -13.29687 -13.20517 30042 ft 474 kts 252°
2026-05-01 10:50 -13.32192 -13.26838 30047 ft 475 kts 252°
2026-05-01 10:51 -13.34691 -13.33149 30041 ft 477 kts 252°
2026-05-01 10:51 -13.37192 -13.39469 30041 ft 475 kts 251°
2026-05-01 10:52 -13.39679 -13.45761 30042 ft 474 kts 251°
2026-05-01 10:52 -13.42188 -13.52113 30043 ft 474 kts 252°
2026-05-01 10:53 -13.44672 -13.58406 30047 ft 475 kts 252°
2026-05-01 10:53 -13.47172 -13.64746 30048 ft 475 kts 251°
2026-05-01 10:54 -13.49654 -13.71045 30054 ft 474 kts 252°
2026-05-01 10:54 -13.52124 -13.77319 30055 ft 474 kts 252°
2026-05-01 10:55 -13.54616 -13.83653 30060 ft 472 kts 252°
2026-05-01 10:55 -13.57088 -13.89944 30061 ft 473 kts 252°
2026-05-01 10:56 -13.59581 -13.96293 30058 ft 474 kts 252°
2026-05-01 10:56 -13.62053 -14.02594 30060 ft 474 kts 252°
2026-05-01 10:57 -13.64530 -14.08912 30064 ft 473 kts 252°
2026-05-01 10:57 -13.66994 -14.15204 30060 ft 474 kts 252°
2026-05-01 10:58 -13.69455 -14.21494 30062 ft 472 kts 252°
2026-05-01 10:58 -13.71916 -14.27788 30061 ft 473 kts 252°
2026-05-01 10:59 -13.74409 -14.34167 30059 ft 472 kts 252°
2026-05-01 10:59 -13.76839 -14.40394 30063 ft 472 kts 252°
2026-05-01 11:00 -13.79302 -14.46709 30069 ft 472 kts 252°
2026-05-01 11:00 -13.81763 -14.53025 30065 ft 472 kts 252°
2026-05-01 11:01 -13.84211 -14.59311 30059 ft 472 kts 252°
2026-05-01 11:01 -13.86671 -14.65638 30063 ft 472 kts 252°
2026-05-01 11:02 -13.89124 -14.71948 30071 ft 472 kts 252°
2026-05-01 11:02 -13.91577 -14.78264 30071 ft 471 kts 252°
2026-05-01 11:03 -13.93998 -14.84506 30072 ft 470 kts 252°
2026-05-01 11:03 -13.96441 -14.90808 30072 ft 469 kts 252°
2026-05-01 11:04 -13.98865 -14.97068 30062 ft 471 kts 252°
2026-05-01 11:04 -14.01349 -15.03338 30062 ft 471 kts 251°
2026-05-01 11:05 -14.03950 -15.09586 30058 ft 473 kts 251°
2026-05-01 11:05 -14.06551 -15.15850 30064 ft 472 kts 251°
2026-05-01 11:06 -14.09129 -15.22073 30059 ft 471 kts 251°
2026-05-01 11:06 -14.11719 -15.28337 30049 ft 471 kts 251°
2026-05-01 11:07 -14.15583 -15.37697 30050 ft 470 kts 251°
2026-05-01 11:07 -14.18151 -15.43928 30051 ft 469 kts 251°
2026-05-01 11:08 -14.20717 -15.50160 30053 ft 470 kts 251°
2026-05-01 11:09 -14.24548 -15.59473 30054 ft 470 kts 251°
2026-05-01 11:09 -14.27097 -15.65674 30053 ft 468 kts 252°
2026-05-01 11:10 -14.30922 -15.74993 30061 ft 468 kts 252°
2026-05-01 11:10 -14.33454 -15.81168 30063 ft 469 kts 252°
2026-05-01 11:11 -14.36012 -15.87412 30061 ft 469 kts 252°
2026-05-01 11:11 -14.38563 -15.93645 30063 ft 469 kts 252°
2026-05-01 11:12 -14.41114 -15.99880 30060 ft 468 kts 252°
2026-05-01 11:12 -14.43650 -16.06087 30064 ft 469 kts 252°
2026-05-01 11:13 -14.46165 -16.12247 30063 ft 467 kts 252°
2026-05-01 11:13 -14.48707 -16.18481 30062 ft 468 kts 252°
2026-05-01 11:14 -14.51253 -16.24725 30065 ft 467 kts 252°
2026-05-01 11:14 -14.53769 -16.30906 30062 ft 467 kts 252°
2026-05-01 11:15 -14.56311 -16.37155 30062 ft 468 kts 252°
2026-05-01 11:15 -14.58835 -16.43364 30063 ft 468 kts 252°
2026-05-01 11:16 -14.61388 -16.49650 30064 ft 469 kts 252°
2026-05-01 11:16 -14.63907 -16.55858 30064 ft 468 kts 252°
2026-05-01 11:17 -14.66453 -16.62138 30066 ft 469 kts 252°
2026-05-01 11:17 -14.68969 -16.68348 30072 ft 467 kts 252°
2026-05-01 11:18 -14.71480 -16.74554 30073 ft 468 kts 252°
2026-05-01 11:18 -14.74007 -16.80805 30074 ft 470 kts 252°
2026-05-01 11:19 -14.76545 -16.87087 30071 ft 468 kts 252°
2026-05-01 11:19 -14.79071 -16.93346 30072 ft 468 kts 252°
2026-05-01 11:20 -14.81569 -16.99541 30071 ft 469 kts 252°
2026-05-01 11:20 -14.84100 -17.05822 30074 ft 468 kts 252°
2026-05-01 11:21 -14.86617 -17.12077 30075 ft 470 kts 252°
2026-05-01 11:21 -14.89144 -17.18361 30076 ft 469 kts 252°
2026-05-01 11:22 -14.91652 -17.24604 30074 ft 470 kts 252°
2026-05-01 11:22 -14.94182 -17.30906 30074 ft 470 kts 252°
2026-05-01 11:23 -14.96687 -17.37152 30076 ft 470 kts 252°
2026-05-01 11:23 -14.99210 -17.43448 30074 ft 471 kts 252°
2026-05-01 11:24 -15.01718 -17.49714 30077 ft 471 kts 252°
2026-05-01 11:25 -15.05495 -17.59159 30075 ft 472 kts 251°
2026-05-01 11:25 -15.09273 -17.68623 30082 ft 473 kts 251°
2026-05-01 11:26 -15.13056 -17.78111 30072 ft 473 kts 251°
2026-05-01 11:27 -15.15568 -17.84416 30072 ft 473 kts 251°
2026-05-01 11:27 -15.18080 -17.90730 30074 ft 473 kts 251°
2026-05-01 11:28 -15.20601 -17.97072 30071 ft 473 kts 251°
2026-05-01 11:28 -15.23117 -18.03406 30063 ft 473 kts 251°
2026-05-01 11:29 -15.26884 -18.12903 30056 ft 475 kts 251°
2026-05-01 11:30 -15.30672 -18.22467 30059 ft 475 kts 251°
2026-05-01 11:30 -15.33176 -18.28795 30059 ft 476 kts 251°
2026-05-01 11:31 -15.35718 -18.35228 30059 ft 477 kts 251°
2026-05-01 11:31 -15.38236 -18.41604 30061 ft 477 kts 251°
2026-05-01 11:32 -15.40771 -18.48030 30061 ft 479 kts 251°
2026-05-01 11:32 -15.43281 -18.54397 30060 ft 478 kts 251°
2026-05-01 11:33 -15.45814 -18.60832 30065 ft 480 kts 250°
2026-05-01 11:33 -15.48344 -18.67263 30065 ft 478 kts 251°
2026-05-01 11:34 -15.50865 -18.73679 30063 ft 480 kts 251°
2026-05-01 11:34 -15.53411 -18.80163 30067 ft 482 kts 250°
2026-05-01 11:35 -15.55933 -18.86594 30066 ft 482 kts 250°
2026-05-01 11:35 -15.58458 -18.93038 30068 ft 482 kts 250°
2026-05-01 11:36 -15.60997 -18.99524 30066 ft 481 kts 250°
2026-05-01 11:36 -15.63537 -19.06020 30070 ft 482 kts 250°
2026-05-01 11:37 -15.66060 -19.12478 30068 ft 482 kts 250°
2026-05-01 11:37 -15.68590 -19.18962 30069 ft 484 kts 250°
2026-05-01 11:38 -15.71124 -19.25463 30071 ft 485 kts 250°
2026-05-01 11:38 -15.73675 -19.32014 30072 ft 487 kts 249°
2026-05-01 11:39 -15.76231 -19.38582 30070 ft 487 kts 249°
2026-05-01 11:39 -15.78785 -19.45153 30072 ft 493 kts 249°
2026-05-01 11:40 -15.81358 -19.51780 30074 ft 493 kts 249°
2026-05-01 11:40 -15.83923 -19.58395 30077 ft 493 kts 248°
2026-05-01 11:41 -15.86483 -19.65000 30074 ft 494 kts 248°
2026-05-01 11:41 -15.89072 -19.71689 30073 ft 493 kts 248°
2026-05-01 11:42 -15.91625 -19.78293 30074 ft 492 kts 248°
2026-05-01 11:42 -15.94199 -19.84956 30075 ft 489 kts 247°
2026-05-01 11:43 -15.96728 -19.91511 30071 ft 490 kts 247°
2026-05-01 11:43 -15.99284 -19.98150 30070 ft 489 kts 248°
2026-05-01 11:44 -16.01792 -20.08483 30081 ft 491 kts 256°
2026-05-01 11:44 -16.03271 -20.15424 30093 ft 492 kts 256°
2026-05-01 11:45 -16.04760 -20.22440 30098 ft 492 kts 256°
2026-05-01 11:45 -16.06231 -20.29387 30101 ft 493 kts 256°
2026-05-01 11:46 -16.07714 -20.36404 30097 ft 491 kts 256°
2026-05-01 11:46 -16.09179 -20.43350 30102 ft 493 kts 255°
2026-05-01 11:47 -16.10650 -20.50340 30105 ft 493 kts 255°
2026-05-01 11:47 -16.12127 -20.57369 30104 ft 495 kts 255°
2026-05-01 11:48 -16.13596 -20.64372 30100 ft 492 kts 255°
2026-05-01 11:48 -16.15056 -20.71346 30094 ft 492 kts 255°
2026-05-01 11:49 -16.16516 -20.78329 30101 ft 491 kts 255°
2026-05-01 11:49 -16.17959 -20.85246 30099 ft 491 kts 254°
2026-05-01 11:50 -16.19420 -20.92259 30104 ft 489 kts 254°
2026-05-01 11:50 -16.20862 -20.99190 30101 ft 490 kts 254°
2026-05-01 11:51 -16.22315 -21.06188 30101 ft 490 kts 254°
2026-05-01 11:51 -16.23752 -21.13120 30097 ft 491 kts 254°
2026-05-01 11:52 -16.25189 -21.20068 30101 ft 491 kts 254°
2026-05-01 11:52 -16.26637 -21.27078 30100 ft 488 kts 254°
2026-05-01 11:53 -16.28067 -21.34013 30096 ft 491 kts 254°
2026-05-01 11:53 -16.29498 -21.40963 30105 ft 490 kts 254°
2026-05-01 11:54 -16.30925 -21.47909 30106 ft 489 kts 254°
2026-05-01 11:54 -16.32346 -21.54838 30103 ft 488 kts 254°
2026-05-01 11:55 -16.33774 -21.61810 30104 ft 490 kts 254°
2026-05-01 11:55 -16.35189 -21.68733 30107 ft 490 kts 254°
2026-05-01 11:56 -16.36618 -21.75737 30101 ft 489 kts 255°
2026-05-01 11:56 -16.38029 -21.82665 30106 ft 488 kts 255°
2026-05-01 11:57 -16.39438 -21.89593 30103 ft 486 kts 254°
2026-05-01 11:57 -16.40849 -21.96543 30103 ft 489 kts 255°
2026-05-01 11:58 -16.42256 -22.03490 30107 ft 488 kts 254°
2026-05-01 11:59 -16.44362 -22.13905 30113 ft 488 kts 255°
2026-05-01 11:59 -16.45062 -22.17367 30113 ft 503 kts 255°
2026-05-01 11:59 -16.45797 -22.21001 30274 ft 516 kts 255°
2026-05-01 12:00 -16.47270 -22.28326 32048 ft 508 kts 255°
2026-05-01 12:00 -16.47984 -22.31886 33121 ft 500 kts 256°
2026-05-01 12:00 -16.49404 -22.38956 34102 ft 501 kts 256°
2026-05-01 12:01 -16.50125 -22.42553 34106 ft 499 kts 256°
2026-05-01 12:01 -16.51544 -22.49640 34111 ft 498 kts 256°
2026-05-01 12:02 -16.52964 -22.56746 34109 ft 498 kts 256°
2026-05-01 12:02 -16.54395 -22.63922 34110 ft 496 kts 255°
2026-05-01 12:03 -16.55805 -22.70999 34110 ft 496 kts 256°
2026-05-01 12:03 -16.57210 -22.78070 34107 ft 496 kts 256°
2026-05-01 12:04 -16.58620 -22.85173 34105 ft 495 kts 256°
2026-05-01 12:04 -16.60008 -22.92181 34110 ft 496 kts 256°
2026-05-01 12:05 -16.61416 -22.99308 34108 ft 495 kts 256°
2026-05-01 12:05 -16.63496 -23.09856 34109 ft 495 kts 256°
2026-05-01 12:06 -16.64898 -23.16978 34112 ft 495 kts 256°
2026-05-01 12:06 -16.66279 -23.24014 34108 ft 495 kts 256°
2026-05-01 12:07 -16.67658 -23.31046 34098 ft 494 kts 256°
2026-05-01 12:07 -16.69051 -23.38165 34092 ft 494 kts 256°
2026-05-01 12:08 -16.70422 -23.45186 34090 ft 495 kts 256°
2026-05-01 12:08 -16.71799 -23.52254 34090 ft 495 kts 256°
2026-05-01 12:09 -16.73169 -23.59293 34094 ft 495 kts 256°
2026-05-01 12:09 -16.74540 -23.66355 34090 ft 495 kts 257°
2026-05-01 12:10 -16.76594 -23.76960 34091 ft 493 kts 257°
2026-05-01 12:11 -16.78630 -23.87497 34091 ft 493 kts 257°
2026-05-01 12:11 -16.79980 -23.94502 34091 ft 492 kts 257°
2026-05-01 12:12 -16.81336 -24.01552 34093 ft 493 kts 257°
2026-05-01 12:12 -16.82698 -24.08646 34091 ft 494 kts 257°
2026-05-01 12:13 -16.84042 -24.15663 34094 ft 493 kts 257°
2026-05-01 12:13 -16.85389 -24.22705 34091 ft 492 kts 257°
2026-05-01 12:14 -16.86734 -24.29750 34095 ft 492 kts 257°
2026-05-01 12:14 -16.88067 -24.36749 34093 ft 492 kts 257°
2026-05-01 12:15 -16.89419 -24.43858 34093 ft 491 kts 257°
2026-05-01 12:15 -16.90741 -24.50829 34094 ft 490 kts 257°
2026-05-01 12:16 -16.92068 -24.57833 34096 ft 491 kts 257°
2026-05-01 12:16 -16.93406 -24.64913 34095 ft 491 kts 257°
2026-05-01 12:17 -16.94729 -24.71923 34093 ft 491 kts 257°
2026-05-01 12:17 -16.96051 -24.78947 34093 ft 491 kts 257°
2026-05-01 12:18 -16.97380 -24.86019 34092 ft 490 kts 258°
2026-05-01 12:18 -16.98691 -24.93004 34094 ft 489 kts 258°
2026-05-01 12:19 -17.00003 -25.00012 34091 ft 491 kts 257°
2026-05-01 12:19 -17.01462 -25.07002 34096 ft 491 kts 256°
2026-05-01 12:20 -17.02964 -25.13982 34095 ft 490 kts 256°
2026-05-01 12:20 -17.04450 -25.20938 34094 ft 489 kts 256°
2026-05-01 12:21 -17.05936 -25.27917 34095 ft 488 kts 256°
2026-05-01 12:21 -17.07404 -25.34832 34099 ft 488 kts 256°
2026-05-01 12:22 -17.08889 -25.41850 34096 ft 487 kts 256°
2026-05-01 12:22 -17.10346 -25.48748 34098 ft 487 kts 256°
2026-05-01 12:23 -17.11816 -25.55720 34097 ft 487 kts 256°
2026-05-01 12:23 -17.13282 -25.62689 34098 ft 488 kts 256°
2026-05-01 12:24 -17.14744 -25.69654 34096 ft 487 kts 256°
2026-05-01 12:24 -17.16205 -25.76620 34098 ft 487 kts 256°
2026-05-01 12:25 -17.18381 -25.87025 34098 ft 487 kts 256°
2026-05-01 12:26 -17.19837 -25.94004 34096 ft 486 kts 257°
2026-05-01 12:26 -17.22001 -26.04393 34097 ft 485 kts 257°
2026-05-01 12:27 -17.24159 -26.14786 34094 ft 485 kts 257°
2026-05-01 12:28 -17.26325 -26.25245 34097 ft 486 kts 257°
2026-05-01 12:29 -17.28478 -26.35671 34102 ft 485 kts 257°
2026-05-01 12:29 -17.30611 -26.46026 34101 ft 485 kts 256°
2026-05-01 12:30 -17.32751 -26.56446 34101 ft 485 kts 256°
2026-05-01 12:31 -17.34171 -26.63374 34103 ft 485 kts 257°
2026-05-01 12:31 -17.35592 -26.70321 34104 ft 485 kts 257°
2026-05-01 12:32 -17.37010 -26.77266 34102 ft 485 kts 257°
2026-05-01 12:32 -17.39131 -26.87679 34102 ft 485 kts 257°
2026-05-01 12:33 -17.40544 -26.94629 34103 ft 485 kts 257°
2026-05-01 12:33 -17.41958 -27.01604 34101 ft 485 kts 257°
2026-05-01 12:34 -17.43356 -27.08507 34105 ft 484 kts 257°
2026-05-01 12:34 -17.44762 -27.15463 34105 ft 484 kts 257°
2026-05-01 12:35 -17.46158 -27.22382 34104 ft 485 kts 257°
2026-05-01 12:35 -17.47555 -27.29324 34105 ft 484 kts 257°
2026-05-01 12:36 -17.48951 -27.36268 34105 ft 485 kts 257°
2026-05-01 12:36 -17.50343 -27.43205 34104 ft 485 kts 257°
2026-05-01 12:37 -17.51733 -27.50151 34108 ft 485 kts 257°
2026-05-01 12:37 -17.53113 -27.57056 34108 ft 485 kts 257°
2026-05-01 12:38 -17.54501 -27.64012 34107 ft 484 kts 257°
2026-05-01 12:38 -17.55883 -27.70957 34107 ft 484 kts 257°
2026-05-01 12:39 -17.57264 -27.77907 34108 ft 484 kts 257°
2026-05-01 12:39 -17.58639 -27.84841 34107 ft 484 kts 257°
2026-05-01 12:40 -17.60004 -27.91737 34108 ft 485 kts 257°
2026-05-01 12:40 -17.61383 -27.98716 34107 ft 484 kts 257°
2026-05-01 12:41 -17.62753 -28.05663 34109 ft 483 kts 257°
2026-05-01 12:41 -17.64116 -28.12590 34109 ft 484 kts 257°
2026-05-01 12:42 -17.65481 -28.19537 34108 ft 484 kts 257°
2026-05-01 12:42 -17.66835 -28.26446 34108 ft 484 kts 257°
2026-05-01 12:43 -17.68195 -28.33396 34108 ft 484 kts 257°
2026-05-01 12:43 -17.69547 -28.40318 34109 ft 484 kts 257°
2026-05-01 12:44 -17.70901 -28.47266 34110 ft 484 kts 257°
2026-05-01 12:45 -17.73606 -28.61184 34109 ft 484 kts 257°
2026-05-01 12:45 -17.74948 -28.68114 34111 ft 484 kts 257°
2026-05-01 12:46 -17.76292 -28.75063 34110 ft 484 kts 257°
2026-05-01 12:46 -17.77637 -28.82031 34110 ft 484 kts 257°
2026-05-01 12:47 -17.78983 -28.89017 34112 ft 484 kts 257°
2026-05-01 12:47 -17.80324 -28.95995 34111 ft 484 kts 257°
2026-05-01 12:48 -17.81647 -29.02888 34113 ft 483 kts 258°
2026-05-01 12:48 -17.82975 -29.09823 34112 ft 483 kts 257°
2026-05-01 12:49 -17.84305 -29.16784 34113 ft 484 kts 258°
2026-05-01 12:49 -17.85624 -29.23703 34114 ft 484 kts 257°
2026-05-01 12:50 -17.86959 -29.30712 34112 ft 485 kts 257°
2026-05-01 12:50 -17.88276 -29.37651 34111 ft 485 kts 257°
2026-05-01 12:51 -17.89606 -29.44665 34115 ft 484 kts 258°
2026-05-01 12:52 -17.91574 -29.55071 34113 ft 484 kts 258°
2026-05-01 12:52 -17.93554 -29.65579 34114 ft 483 kts 258°
2026-05-01 12:53 -17.95508 -29.75976 34114 ft 484 kts 258°
2026-05-01 12:54 -17.96821 -29.82979 34108 ft 483 kts 258°
2026-05-01 12:54 -17.98755 -29.93323 34115 ft 483 kts 258°
2026-05-01 12:55 -18.00775 -30.03807 34117 ft 484 kts 256°
2026-05-01 12:56 -18.02258 -30.10667 34115 ft 484 kts 256°
2026-05-01 12:56 -18.03758 -30.17640 34115 ft 483 kts 256°
2026-05-01 12:57 -18.05239 -30.24563 34114 ft 484 kts 256°
2026-05-01 12:57 -18.07451 -30.34952 34115 ft 483 kts 256°
2026-05-01 12:58 -18.08919 -30.41865 34114 ft 484 kts 257°
2026-05-01 12:59 -18.11120 -30.52266 34117 ft 483 kts 257°
2026-05-01 12:59 -18.13309 -30.62637 34117 ft 483 kts 257°
2026-05-01 13:00 -18.15506 -30.73082 34116 ft 483 kts 257°
2026-05-01 13:01 -18.17693 -30.83503 34113 ft 483 kts 257°
2026-05-01 13:02 -18.19860 -30.93858 34114 ft 483 kts 257°
2026-05-01 13:07 -18.35596 -31.69966 34103 ft 481 kts 257°
2026-05-01 13:08 -18.37000 -31.76834 34101 ft 480 kts 257°
2026-05-01 13:08 -18.38408 -31.83736 34105 ft 479 kts 257°
2026-05-01 13:09 -18.39810 -31.90620 34104 ft 480 kts 257°
2026-05-01 13:09 -18.41210 -31.97508 34106 ft 479 kts 257°
2026-05-01 13:10 -18.42615 -32.04435 34104 ft 481 kts 257°
2026-05-01 13:10 -18.44006 -32.11306 34107 ft 479 kts 257°
2026-05-01 13:11 -18.45398 -32.18199 34105 ft 479 kts 257°
2026-05-01 13:11 -18.46790 -32.25100 34105 ft 479 kts 257°
2026-05-01 13:12 -18.48172 -32.31967 34106 ft 479 kts 257°
2026-05-01 13:12 -18.49566 -32.38905 34105 ft 479 kts 257°
2026-05-01 13:13 -18.50933 -32.45724 34103 ft 480 kts 257°
2026-05-01 13:13 -18.52302 -32.52566 34106 ft 479 kts 257°
2026-05-01 13:14 -18.53695 -32.59543 34104 ft 480 kts 257°
2026-05-01 13:14 -18.55044 -32.66311 34107 ft 479 kts 257°
2026-05-01 13:15 -18.56424 -32.73253 34108 ft 479 kts 257°
2026-05-01 13:15 -18.57794 -32.80156 34108 ft 478 kts 257°
2026-05-01 13:16 -18.59155 -32.87025 34108 ft 479 kts 257°
2026-05-01 13:16 -18.60517 -32.93914 34108 ft 478 kts 257°
2026-05-01 13:17 -18.63235 -33.07700 34108 ft 479 kts 257°
2026-05-01 13:18 -18.65272 -33.18074 34109 ft 479 kts 257°
2026-05-01 13:18 -18.66623 -33.24968 34109 ft 479 kts 257°
2026-05-01 13:19 -18.67984 -33.31929 34110 ft 478 kts 257°
2026-05-01 13:20 -18.70005 -33.42288 34110 ft 478 kts 257°
2026-05-01 13:20 -18.71344 -33.49173 34110 ft 479 kts 257°
2026-05-01 13:21 -18.73362 -33.59573 34111 ft 479 kts 257°
2026-05-01 13:21 -18.74651 -33.66233 34106 ft 478 kts 257°
2026-05-01 13:22 -18.75988 -33.73153 34100 ft 479 kts 257°
2026-05-01 13:22 -18.77313 -33.80029 34098 ft 478 kts 257°
2026-05-01 13:23 -18.78645 -33.86952 34096 ft 479 kts 257°
2026-05-01 13:23 -18.79977 -33.93888 34095 ft 479 kts 257°
2026-05-01 13:24 -18.81306 -34.00827 34095 ft 480 kts 257°
2026-05-01 13:25 -18.83292 -34.11225 34094 ft 479 kts 257°
2026-05-01 13:25 -18.84613 -34.18157 34095 ft 479 kts 257°
2026-05-01 13:26 -18.85928 -34.25071 34094 ft 479 kts 257°
2026-05-01 13:26 -18.87243 -34.32000 34094 ft 479 kts 257°
2026-05-01 13:27 -18.88563 -34.38972 34094 ft 480 kts 257°
2026-05-01 13:27 -18.90532 -34.49396 34094 ft 480 kts 257°
2026-05-01 13:28 -18.92482 -34.59752 34094 ft 479 kts 257°
2026-05-01 13:29 -18.95090 -34.73656 34094 ft 480 kts 257°
2026-05-01 13:31 -18.98978 -34.94497 34095 ft 480 kts 257°
2026-05-01 13:31 -19.01868 -35.04596 34099 ft 477 kts 245°
2026-05-01 13:32 -19.04586 -35.11010 34094 ft 477 kts 244°
2026-05-01 13:33 -19.11355 -35.27097 34097 ft 477 kts 245°
2026-05-01 13:34 -19.16742 -35.39978 34101 ft 475 kts 245°
2026-05-01 13:35 -19.20754 -35.49596 34100 ft 475 kts 245°
2026-05-01 13:36 -19.24768 -35.59240 34101 ft 475 kts 245°
2026-05-01 13:36 -19.28803 -35.68949 34102 ft 475 kts 245°
2026-05-01 13:37 -19.31444 -35.75316 34102 ft 475 kts 245°
2026-05-01 13:37 -19.34108 -35.81744 34104 ft 475 kts 245°
2026-05-01 13:38 -19.38101 -35.91392 34104 ft 475 kts 245°
2026-05-01 13:39 -19.40757 -35.97821 34103 ft 473 kts 245°
2026-05-01 13:39 -19.43433 -36.04306 34104 ft 473 kts 245°
2026-05-01 13:40 -19.46057 -36.10669 34106 ft 474 kts 245°
2026-05-01 13:40 -19.48705 -36.17102 34107 ft 473 kts 245°
2026-05-01 13:41 -19.51353 -36.23540 34110 ft 473 kts 245°
2026-05-01 13:41 -19.54007 -36.30000 34108 ft 474 kts 245°
2026-05-01 13:42 -19.56643 -36.36427 34110 ft 473 kts 245°
2026-05-01 13:42 -19.59279 -36.42858 34109 ft 472 kts 245°
2026-05-01 13:43 -19.61883 -36.49220 34109 ft 471 kts 245°
2026-05-01 13:43 -19.64538 -36.55713 34108 ft 471 kts 245°
2026-05-01 13:44 -19.67142 -36.62093 34106 ft 472 kts 245°
2026-05-01 13:44 -19.69751 -36.68487 34109 ft 471 kts 245°
2026-05-01 13:45 -19.72376 -36.74933 34109 ft 472 kts 245°
2026-05-01 13:45 -19.74959 -36.81282 34111 ft 470 kts 245°
2026-05-01 13:46 -19.77597 -36.87774 34111 ft 471 kts 245°
2026-05-01 13:46 -19.80176 -36.94127 34110 ft 471 kts 245°
2026-05-01 13:47 -19.82771 -37.00529 34109 ft 470 kts 245°
2026-05-01 13:47 -19.85384 -37.06981 34111 ft 470 kts 245°
2026-05-01 13:48 -19.87966 -37.13366 34111 ft 471 kts 245°
2026-05-01 13:48 -19.90561 -37.19791 34109 ft 471 kts 245°
2026-05-01 13:49 -19.93152 -37.26212 34111 ft 471 kts 246°
2026-05-01 13:49 -19.95735 -37.32622 34112 ft 470 kts 246°
2026-05-01 13:50 -19.98340 -37.39097 34113 ft 469 kts 245°
2026-05-01 13:50 -20.00914 -37.45498 34112 ft 470 kts 245°
2026-05-01 13:51 -20.03494 -37.51924 34113 ft 469 kts 246°
2026-05-01 13:51 -20.06066 -37.58340 34112 ft 469 kts 246°
2026-05-01 13:52 -20.08614 -37.64703 34112 ft 470 kts 246°
2026-05-01 13:52 -20.11211 -37.71195 34119 ft 469 kts 246°
2026-05-01 13:53 -20.13766 -37.77590 34116 ft 470 kts 246°
2026-05-01 13:53 -20.17614 -37.87239 34120 ft 469 kts 246°
2026-05-01 13:54 -20.20162 -37.93635 34120 ft 469 kts 246°
2026-05-01 13:54 -20.22726 -38.00081 34117 ft 468 kts 246°
2026-05-01 13:55 -20.25273 -38.06492 34118 ft 469 kts 246°
2026-05-01 13:55 -20.27803 -38.12869 34117 ft 467 kts 246°
2026-05-01 13:56 -20.30353 -38.19304 34120 ft 467 kts 246°
2026-05-01 13:56 -20.32884 -38.25698 34118 ft 469 kts 246°
2026-05-01 13:57 -20.35420 -38.32114 34118 ft 467 kts 246°
2026-05-01 13:57 -20.37954 -38.38532 34114 ft 466 kts 246°
2026-05-01 13:58 -20.40466 -38.44902 34118 ft 467 kts 246°
2026-05-01 13:58 -20.42989 -38.51309 34111 ft 466 kts 246°
2026-05-01 13:59 -20.45512 -38.57724 34115 ft 467 kts 246°
2026-05-01 13:59 -20.48045 -38.64171 34115 ft 466 kts 246°
2026-05-01 14:00 -20.50555 -38.70568 34118 ft 466 kts 247°
2026-05-01 14:00 -20.53060 -38.76961 34115 ft 466 kts 247°
2026-05-01 14:01 -20.55574 -38.83385 34119 ft 466 kts 247°
2026-05-01 14:01 -20.58069 -38.89769 34114 ft 465 kts 247°
2026-05-01 14:02 -20.60562 -38.96158 34116 ft 465 kts 247°
2026-05-01 14:02 -20.63073 -39.02598 34118 ft 465 kts 247°
2026-05-01 14:03 -20.65556 -39.08974 34114 ft 464 kts 247°
2026-05-01 14:03 -20.68051 -39.15389 34115 ft 464 kts 247°
2026-05-01 14:04 -20.70534 -39.21782 34117 ft 464 kts 247°
2026-05-01 14:04 -20.73025 -39.28205 34114 ft 465 kts 247°
2026-05-01 14:05 -20.75494 -39.34578 34111 ft 464 kts 247°
2026-05-01 14:05 -20.77957 -39.40946 34115 ft 463 kts 247°
2026-05-01 14:06 -20.80440 -39.47373 34113 ft 463 kts 247°
2026-05-01 14:06 -20.82917 -39.53791 34114 ft 463 kts 247°
2026-05-01 14:07 -20.85393 -39.60215 34113 ft 463 kts 247°
2026-05-01 14:08 -20.89082 -39.69795 34117 ft 462 kts 247°
2026-05-01 14:08 -20.91567 -39.76194 34116 ft 463 kts 247°
2026-05-01 14:09 -20.94052 -39.82600 34117 ft 462 kts 247°
2026-05-01 14:09 -20.96517 -39.88964 34115 ft 462 kts 247°
2026-05-01 14:10 -20.98994 -39.95367 34115 ft 461 kts 247°
2026-05-01 14:10 -21.01451 -40.01730 34115 ft 461 kts 247°
2026-05-01 14:11 -21.03906 -40.08095 34114 ft 461 kts 247°
2026-05-01 14:11 -21.07623 -40.17749 34116 ft 461 kts 247°
2026-05-01 14:12 -21.10067 -40.24107 34116 ft 461 kts 248°
2026-05-01 14:12 -21.12532 -40.30526 34116 ft 462 kts 248°
2026-05-01 14:13 -21.14973 -40.36894 34115 ft 461 kts 248°
2026-05-01 14:13 -21.17412 -40.43263 34115 ft 462 kts 248°
2026-05-01 14:14 -21.19854 -40.49652 34114 ft 461 kts 248°
2026-05-01 14:14 -21.22284 -40.56016 34114 ft 460 kts 248°
2026-05-01 14:15 -21.24738 -40.62450 34113 ft 461 kts 248°
2026-05-01 14:15 -21.27161 -40.68814 34118 ft 461 kts 248°
2026-05-01 14:16 -21.29612 -40.75261 34118 ft 461 kts 248°
2026-05-01 14:16 -21.32038 -40.81648 34117 ft 460 kts 248°
2026-05-01 14:17 -21.34462 -40.88039 34117 ft 461 kts 248°
2026-05-01 14:17 -21.36900 -40.94474 34117 ft 460 kts 248°
2026-05-01 14:18 -21.39310 -41.00843 34116 ft 460 kts 248°
2026-05-01 14:18 -21.41718 -41.07212 34121 ft 460 kts 248°
2026-05-01 14:19 -21.44143 -41.13634 34130 ft 461 kts 248°
2026-05-01 14:19 -21.46546 -41.20006 34130 ft 460 kts 248°
2026-05-01 14:20 -21.50171 -41.29631 34134 ft 460 kts 248°
2026-05-01 14:21 -21.52575 -41.36002 34138 ft 459 kts 248°
2026-05-01 14:21 -21.55009 -41.42495 34141 ft 459 kts 248°
2026-05-01 14:22 -21.58579 -41.52033 34145 ft 458 kts 248°
2026-05-01 14:22 -21.60958 -41.58402 34154 ft 458 kts 248°
2026-05-01 14:23 -21.63341 -41.64788 34167 ft 458 kts 249°
2026-05-01 14:23 -21.65713 -41.71155 34194 ft 457 kts 249°
2026-05-01 14:24 -21.68108 -41.77593 34207 ft 457 kts 249°
2026-05-01 14:24 -21.70472 -41.83953 34206 ft 458 kts 249°
2026-05-01 14:25 -21.72834 -41.90318 34194 ft 457 kts 249°
2026-05-01 14:25 -21.75214 -41.96742 34174 ft 457 kts 249°
2026-05-01 14:26 -21.78737 -42.06265 34168 ft 457 kts 249°
2026-05-01 14:27 -21.80910 -42.12149 34173 ft 457 kts 249°
2026-05-01 14:27 -21.83294 -42.18613 34179 ft 456 kts 249°
2026-05-01 14:28 -21.87170 -42.27685 34182 ft 457 kts 244°
2026-05-01 14:28 -21.89821 -42.33402 34187 ft 457 kts 244°
2026-05-01 14:29 -21.92645 -42.39550 34189 ft 456 kts 245°
2026-05-01 14:30 -21.98055 -42.51411 34199 ft 455 kts 245°
2026-05-01 14:31 -22.01983 -42.60061 34203 ft 454 kts 245°
2026-05-01 14:31 -22.04895 -42.66489 34204 ft 454 kts 245°
2026-05-01 14:32 -22.07814 -42.72894 34209 ft 454 kts 245°
2026-05-01 14:32 -22.10560 -42.78842 34215 ft 454 kts 245°
2026-05-01 14:33 -22.13261 -42.84708 34220 ft 453 kts 245°
2026-05-01 14:33 -22.16033 -42.90737 34226 ft 453 kts 245°
2026-05-01 14:34 -22.18767 -42.96693 34233 ft 453 kts 245°
2026-05-01 14:34 -22.21379 -43.02387 34240 ft 453 kts 245°
2026-05-01 14:35 -22.24061 -43.08243 34240 ft 453 kts 245°
2026-05-01 14:35 -22.26783 -43.14193 34229 ft 453 kts 245°
2026-05-01 14:36 -22.29527 -43.20200 34215 ft 452 kts 245°
2026-05-01 14:36 -22.32306 -43.26290 34205 ft 453 kts 245°
2026-05-01 14:37 -22.34898 -43.31979 34204 ft 452 kts 245°
2026-05-01 14:37 -22.37750 -43.38242 34194 ft 451 kts 245°
2026-05-01 14:38 -22.40445 -43.44171 34190 ft 452 kts 245°
2026-05-01 14:38 -22.43130 -43.50082 34180 ft 451 kts 245°
2026-05-01 14:39 -22.45897 -43.56183 34186 ft 452 kts 245°
2026-05-01 14:39 -22.48616 -43.62186 34193 ft 451 kts 245°
2026-05-01 14:40 -22.51222 -43.67945 34202 ft 452 kts 245°
2026-05-01 14:40 -22.54020 -43.74134 34204 ft 451 kts 245°
2026-05-01 14:41 -22.56621 -43.79897 34198 ft 451 kts 245°
2026-05-01 14:41 -22.59366 -43.85986 34191 ft 451 kts 245°
2026-05-01 14:42 -22.62036 -43.91916 34185 ft 450 kts 246°
2026-05-01 14:42 -22.64755 -43.97961 34181 ft 450 kts 245°
2026-05-01 14:43 -22.67423 -44.03900 34187 ft 449 kts 246°
2026-05-01 14:43 -22.70143 -44.09962 34200 ft 449 kts 246°
2026-05-01 14:44 -22.72809 -44.15913 34232 ft 449 kts 245°
2026-05-01 14:44 -22.77154 -44.24663 34269 ft 451 kts 239°
2026-05-01 14:45 -22.82231 -44.33040 34251 ft 449 kts 238°
2026-05-01 14:46 -22.85701 -44.38779 34232 ft 449 kts 239°
2026-05-01 14:46 -22.90826 -44.47272 34219 ft 449 kts 239°
2026-05-01 14:47 -22.94292 -44.53025 34211 ft 448 kts 239°
2026-05-01 14:48 -22.99409 -44.61534 34222 ft 449 kts 239°
2026-05-01 14:48 -23.03690 -44.70553 34247 ft 444 kts 255°
2026-05-01 14:49 -23.06640 -44.83456 34274 ft 444 kts 257°
2026-05-01 14:50 -23.09552 -44.96432 33112 ft 439 kts 257°
2026-05-01 14:51 -23.10282 -44.99699 32263 ft 441 kts 257°
2026-05-01 14:51 -23.11739 -45.06219 30783 ft 439 kts 257°
2026-05-01 14:52 -23.13158 -45.12584 29835 ft 439 kts 258°
2026-05-01 14:52 -23.13886 -45.15862 29275 ft 450 kts 258°
2026-05-01 14:52 -23.15366 -45.22520 28140 ft 442 kts 257°
2026-05-01 14:53 -23.16084 -45.25756 27574 ft 438 kts 257°
2026-05-01 14:53 -23.16794 -45.28959 27010 ft 434 kts 257°
2026-05-01 14:53 -23.17497 -45.32132 26446 ft 430 kts 257°
2026-05-01 14:53 -23.18200 -45.35311 25873 ft 426 kts 258°
2026-05-01 14:54 -23.18895 -45.38458 25304 ft 423 kts 258°
2026-05-01 14:54 -23.19581 -45.41556 24734 ft 419 kts 258°
2026-05-01 14:54 -23.20255 -45.44592 24173 ft 416 kts 257°
2026-05-01 14:54 -23.20936 -45.47663 23608 ft 413 kts 258°
2026-05-01 14:55 -23.21596 -45.50644 23057 ft 410 kts 258°
2026-05-01 14:55 -23.22268 -45.53683 22495 ft 407 kts 258°
2026-05-01 14:55 -23.22942 -45.56695 21937 ft 404 kts 256°
2026-05-01 14:55 -23.23737 -45.59610 21386 ft 402 kts 254°
2026-05-01 14:56 -23.24554 -45.62500 20824 ft 400 kts 254°
2026-05-01 14:56 -23.25362 -45.65374 20264 ft 398 kts 255°
2026-05-01 14:56 -23.26172 -45.68271 19708 ft 396 kts 255°
2026-05-01 14:56 -23.26960 -45.71104 19146 ft 395 kts 255°
2026-05-01 14:57 -23.27750 -45.73952 18586 ft 393 kts 255°
2026-05-01 14:57 -23.29309 -45.79595 17472 ft 389 kts 255°
2026-05-01 14:57 -23.30081 -45.82396 16914 ft 387 kts 255°
2026-05-01 14:58 -23.30846 -45.85179 16353 ft 385 kts 255°
2026-05-01 14:58 -23.31608 -45.87950 15802 ft 382 kts 254°
2026-05-01 14:58 -23.32371 -45.90730 15264 ft 380 kts 254°
2026-05-01 14:58 -23.33136 -45.93451 14940 ft 373 kts 253°
2026-05-01 14:59 -23.33902 -45.96145 14814 ft 374 kts 253°
2026-05-01 14:59 -23.34677 -45.98873 14669 ft 375 kts 253°
2026-05-01 14:59 -23.35438 -46.01559 14500 ft 373 kts 253°
2026-05-01 14:59 -23.36203 -46.04260 14320 ft 373 kts 253°
2026-05-01 15:00 -23.37726 -46.09647 13932 ft 372 kts 253°
2026-05-01 15:00 -23.38484 -46.12334 13752 ft 371 kts 253°
2026-05-01 15:00 -23.39234 -46.14993 13554 ft 371 kts 253°
2026-05-01 15:01 -23.39998 -46.17702 13381 ft 370 kts 253°
2026-05-01 15:01 -23.40743 -46.20348 13211 ft 370 kts 253°
2026-05-01 15:01 -23.41504 -46.23051 13010 ft 369 kts 253°
2026-05-01 15:01 -23.42232 -46.25705 12819 ft 368 kts 257°
2026-05-01 15:02 -23.42551 -46.28471 12629 ft 366 kts 270°
2026-05-01 15:02 -23.42523 -46.29374 12566 ft 365 kts 275°
2026-05-01 15:02 -23.41406 -46.33770 12281 ft 363 kts 297°
2026-05-01 15:02 -23.40135 -46.36130 12108 ft 362 kts 302°
2026-05-01 15:03 -23.38782 -46.38453 11927 ft 360 kts 302°
2026-05-01 15:03 -23.37427 -46.40739 11746 ft 359 kts 303°
2026-05-01 15:03 -23.36073 -46.43002 11568 ft 357 kts 303°
2026-05-01 15:03 -23.34719 -46.45254 11389 ft 356 kts 303°
2026-05-01 15:04 -23.33358 -46.47510 11207 ft 353 kts 303°
2026-05-01 15:04 -23.32042 -46.49691 10994 ft 342 kts 303°
2026-05-01 15:04 -23.30740 -46.51846 10674 ft 336 kts 303°
2026-05-01 15:04 -23.29487 -46.53918 10426 ft 322 kts 303°
2026-05-01 15:05 -23.28270 -46.55929 10251 ft 308 kts 303°
2026-05-01 15:05 -23.27120 -46.57828 10098 ft 294 kts 303°
2026-05-01 15:05 -23.26220 -46.59736 9953 ft 281 kts 291°
2026-05-01 15:05 -23.25571 -46.61727 9757 ft 277 kts 289°
2026-05-01 15:06 -23.24967 -46.63701 9535 ft 275 kts 289°
2026-05-01 15:06 -23.24359 -46.65682 9318 ft 274 kts 290°
2026-05-01 15:06 -23.23758 -46.67634 9105 ft 273 kts 289°
2026-05-01 15:06 -23.23509 -46.69685 8889 ft 275 kts 268°
2026-05-01 15:07 -23.23775 -46.71731 8697 ft 276 kts 261°
2026-05-01 15:07 -23.24141 -46.73746 8635 ft 262 kts 261°
2026-05-01 15:07 -23.24490 -46.75621 8576 ft 251 kts 261°
2026-05-01 15:07 -23.24835 -46.77493 8277 ft 251 kts 261°
2026-05-01 15:08 -23.25252 -46.79330 7947 ft 254 kts 249°
2026-05-01 15:08 -23.26221 -46.80956 7573 ft 258 kts 232°
2026-05-01 15:08 -23.27389 -46.82423 7343 ft 255 kts 231°
2026-05-01 15:08 -23.28565 -46.83859 7055 ft 254 kts 229°
2026-05-01 15:09 -23.29988 -46.84993 6722 ft 256 kts 202°
2026-05-01 15:09 -23.31701 -46.85297 6569 ft 248 kts 174°
2026-05-01 15:09 -23.33336 -46.84779 6270 ft 245 kts 148°
2026-05-01 15:09 -23.34603 -46.83570 6007 ft 237 kts 126°
2026-05-01 15:10 -23.35600 -46.82121 5980 ft 241 kts 122°
2026-05-01 15:10 -23.37459 -46.79124 5975 ft 239 kts 121°
2026-05-01 15:10 -23.38372 -46.77619 5975 ft 237 kts 121°
2026-05-01 15:11 -23.39285 -46.76114 5974 ft 239 kts 121°
2026-05-01 15:11 -23.41114 -46.73098 5975 ft 236 kts 121°
2026-05-01 15:11 -23.42018 -46.71649 5960 ft 227 kts 128°
2026-05-01 15:12 -23.43209 -46.70607 5957 ft 219 kts 152°
2026-05-01 15:12 -23.46102 -46.69527 5670 ft 211 kts 149°
2026-05-01 15:12 -23.47205 -46.68543 5531 ft 202 kts 126°
2026-05-01 15:13 -23.47935 -46.64477 5175 ft 175 kts 87°
2026-05-01 15:14 -23.47502 -46.62011 4809 ft 155 kts 70°
2026-05-01 15:14 -23.47192 -46.60912 4627 ft 150 kts 71°
2026-05-01 15:14 -23.46609 -46.58751 4268 ft 150 kts 71°
2026-05-01 15:15 -23.46031 -46.56622 3888 ft 148 kts 72°
2026-05-01 15:15 -23.45458 -46.54500 3503 ft 144 kts 72°
2026-05-01 15:16 -23.44884 -46.52377 3191 ft 147 kts 72°
2026-05-01 15:16 -23.44313 -46.50226 2756 ft 149 kts 72°
2026-05-01 15:17 -23.43731 -46.48138 2472 ft 138 kts 73°
2026-05-01 15:18 -23.43210 -46.46234 2457 ft 52 kts 73°
2026-05-01 15:18 -23.43155 -46.46031 2457 ft 25 kts 73°
2026-05-01 15:19 -23.42942 -46.45952 2458 ft 0 kts 335°
2026-05-01 15:19 -23.42924 -46.45960 2458 ft 6 kts 339°
2026-05-01 15:19 -23.42841 -46.45989 2458 ft 17 kts 344°
2026-05-01 15:20 -23.42701 -46.46031 2458 ft 0 kts 345°
2026-05-01 15:21 -23.42683 -46.46037 2458 ft 5 kts 344°
2026-05-01 15:21 -23.42657 -46.46063 2458 ft 5 kts 288°
2026-05-01 15:21 -23.42655 -46.46104 2458 ft 6 kts 264°
2026-05-01 15:21 -23.42667 -46.46157 2458 ft 7 kts 249°
2026-05-01 15:22 -23.42702 -46.46291 2454 ft 11 kts 254°
2026-05-01 15:22 -23.42722 -46.46365 2454 ft 8 kts 254°
2026-05-01 15:22 -23.42741 -46.46435 2453 ft 10 kts 254°
2026-05-01 15:23 -23.42760 -46.46507 2453 ft 9 kts 254°
2026-05-01 15:23 -23.42778 -46.46576 2453 ft 9 kts 253°
2026-05-01 15:23 -23.42797 -46.46644 2453 ft 11 kts 253°
2026-05-01 15:23 -23.42825 -46.46746 2452 ft 16 kts 254°
2026-05-01 15:24 -23.42857 -46.46864 2452 ft 15 kts 253°
2026-05-01 15:24 -23.42886 -46.46974 2453 ft 14 kts 253°
2026-05-01 15:24 -23.42907 -46.47050 2453 ft 7 kts 257°
2026-05-01 15:24 -23.42874 -46.47104 2452 ft 11 kts 327°
2026-05-01 15:25 -23.42788 -46.47139 2450 ft 11 kts 343°
2026-05-01 15:25 -23.42744 -46.47153 2449 ft 6 kts 343°
2026-05-01 15:25 -23.42724 -46.47179 2449 ft 2 kts 266°
2026-05-01 15:25 -23.42731 -46.47205 2449 ft 4 kts 253°
2026-05-01 15:26 -23.42741 -46.47242 2449 ft 5 kts 254°
2026-05-01 15:26 -23.42745 -46.47260 2449 ft 0 kts 254°
2026-05-01 15:26 -23.42746 -46.47261 2449 ft 0 kts 254°